Date String (YYYY-MM-DD hh:mm:ss) UTC,Instrument flags,Ambient pressure (hPa),Sample flow (lpm),Bypass flow (lpm),Sample temperature (°C),Ambient temperature (°C),ASC tube jacket temperature (°C),LED temperature (°C),Box temperature (°C),Sample RH (%),Span deviation,Mass concentration (μg/m³),Mass concentration (μg/m³),Mass concentration (μg/m³)
DateTimeUTC,F1_M11,P_M11,Q1_M11,Q2_M11,T1_M11,T2_M11,T3_M11,T4_M11,T5_M11,U1_M11,ZSPAN_M11,X0_M11,X2_M11,X1_M11
2022-07-12 14:00:00,,0831.0,5.01,0.00,29.9,28.4,00.0,38.7,31.7,30.2,0000.7,0015.06,0008.47,0007.34
2022-07-12 14:01:00,,0831.0,4.99,0.00,29.9,28.5,00.0,38.7,31.7,30.2,0000.0,0016.26,0008.53,0007.35
2022-07-12 14:02:00,,0831.0,5.00,0.00,29.9,28.6,00.0,38.7,31.7,30.4,0001.0,0016.27,0008.54,0007.36
2022-07-12 14:03:00,,0830.9,5.01,0.00,29.9,28.6,00.0,38.7,31.7,30.2,0000.9,0015.88,0008.54,0007.39
2022-07-12 14:04:00,,0830.9,5.00,0.00,29.9,28.7,00.0,38.7,31.8,30.2,0000.0,0016.10,0008.61,0007.41
2022-07-12 14:05:00,,0830.9,4.99,0.00,29.9,28.7,00.0,38.7,31.8,30.7,0000.0,0016.65,0008.67,0007.43
2022-07-12 14:06:00,,0830.9,5.00,0.00,29.9,28.8,00.0,38.7,31.9,30.7,0000.0,0016.98,0008.65,0007.42
2022-07-12 14:07:00,,0830.9,5.01,0.00,30.0,28.8,00.0,38.7,31.9,30.4,0000.0,0016.49,0008.67,0007.44
2022-07-12 14:08:00,,0830.9,5.01,0.00,30.0,28.9,00.0,38.7,31.9,30.4,0000.3,0015.92,0008.74,0007.45
2022-07-12 14:09:00,,0830.9,5.00,0.00,30.0,28.9,00.0,38.7,31.9,30.6,0000.8,0016.01,0008.76,0007.45
2022-07-12 14:10:00,,0830.9,5.00,0.00,30.0,28.9,00.0,38.7,31.9,30.4,0000.3,0016.03,0008.74,0007.45
2022-07-12 14:11:00,,0830.9,5.00,0.00,30.0,28.9,00.0,38.8,31.9,30.2,0000.4,0016.00,0008.79,0007.50
2022-07-12 14:12:00,,0830.9,5.00,0.00,30.0,29.0,00.0,38.8,31.9,30.2,0000.6,0015.68,0008.88,0007.57
2022-07-12 14:13:00,,0830.9,4.99,0.00,30.0,29.0,00.0,38.8,31.9,30.1,0000.0,0015.45,0008.97,0007.65
2022-07-12 14:14:00,,0830.9,4.99,0.00,30.0,29.0,00.0,38.8,32.0,30.1,0000.0,0015.58,0008.99,0007.71
2022-07-12 14:15:00,,0830.9,5.01,0.00,30.0,29.0,00.0,38.8,32.0,30.1,0000.0,0015.92,0008.97,0007.74
2022-07-12 14:16:00,,0830.9,4.99,0.00,30.0,29.0,00.0,38.8,32.0,29.8,0000.9,0016.05,0008.99,0007.78
2022-07-12 14:17:00,,0831.0,5.01,0.00,30.0,28.4,00.0,38.7,31.9,29.8,0000.9,0015.80,0009.09,0007.86
2022-07-12 14:18:00,,0830.9,5.00,0.00,30.0,27.7,00.0,38.7,31.8,30.1,0000.1,0016.11,0009.24,0007.93
2022-07-12 14:19:00,,0830.9,5.00,0.00,29.9,27.5,00.0,38.7,31.7,30.0,0000.2,0016.04,0009.26,0007.99
2022-07-12 14:20:00,,0830.9,4.99,0.00,29.9,27.5,00.0,38.7,31.5,30.4,0000.0,0016.73,0009.33,0008.05
2022-07-12 14:21:00,,0830.9,5.00,0.00,29.8,27.6,00.0,38.7,31.5,30.9,0000.0,0017.40,0009.45,0008.12
2022-07-12 14:22:00,,0830.9,5.00,0.00,29.8,27.7,00.0,38.6,31.5,30.5,0000.6,0019.44,0009.50,0008.16
2022-07-12 14:23:00,,0831.0,5.00,0.00,29.8,27.8,00.0,38.6,31.5,30.7,0000.0,0019.41,0009.48,0008.16
2022-07-12 14:24:00,,0831.0,5.01,0.00,29.8,28.0,00.0,38.6,31.5,30.8,0000.0,0019.69,0009.43,0008.15
2022-07-12 14:25:00,,0830.9,4.99,0.00,29.7,28.1,00.0,38.6,31.6,31.4,0000.0,0019.80,0009.39,0008.15
2022-07-12 14:26:00,,0830.9,5.01,0.00,29.8,28.2,00.0,38.6,31.6,31.6,0000.0,0020.37,0009.45,0008.14
2022-07-12 14:27:00,,0830.9,5.00,0.00,29.8,28.3,00.0,38.6,31.6,31.5,0000.0,0020.28,0009.45,0008.14
2022-07-12 14:28:00,,0830.9,4.99,0.00,29.8,28.4,00.0,38.6,31.6,31.3,0000.0,0019.98,0009.46,0008.14
2022-07-12 14:29:00,,0830.9,5.00,0.00,29.8,28.5,00.0,38.6,31.7,31.5,0000.4,0020.10,0009.44,0008.15
2022-07-12 14:30:00,,0830.9,5.01,0.00,29.8,28.5,00.0,38.6,31.7,31.6,0000.4,0021.17,0009.41,0008.14
2022-07-12 14:31:00,,0830.9,4.99,0.00,29.8,28.6,00.0,38.6,31.7,31.5,0000.6,0020.55,0009.46,0008.14
2022-07-12 14:32:00,,0831.0,5.02,0.00,29.8,28.6,00.0,38.6,31.7,31.8,0000.7,0020.16,0009.44,0008.15
2022-07-12 14:33:00,,0831.0,4.99,0.00,29.9,28.7,00.0,38.6,31.8,31.7,0000.7,0018.81,0009.41,0008.16
2022-07-12 14:34:00,,0830.9,5.01,0.00,29.9,28.8,00.0,38.7,31.8,31.7,0000.9,0018.73,0009.40,0008.15
2022-07-12 14:35:00,,0830.9,5.00,0.00,29.9,28.8,00.0,38.7,31.8,31.5,0000.8,0018.25,0009.41,0008.14
2022-07-12 14:36:00,,0830.9,4.99,0.00,29.9,28.8,00.0,38.7,31.8,31.7,0001.2,0018.20,0009.46,0008.13
2022-07-12 14:37:00,,0830.9,5.00,0.00,29.9,28.9,00.0,38.7,31.9,31.1,0001.6,0017.40,0009.44,0008.15
2022-07-12 14:38:00,,0830.9,5.01,0.00,30.0,28.9,00.0,38.7,31.9,30.8,0001.4,0017.49,0009.49,0008.16
2022-07-12 14:39:00,,0830.9,5.00,0.00,30.0,28.2,00.0,38.6,31.8,30.6,0001.0,0018.16,0009.47,0008.16
2022-07-12 14:40:00,,0830.9,5.00,0.00,29.9,27.5,00.0,38.6,31.7,30.7,0000.7,0018.60,0009.48,0008.16
2022-07-12 14:41:00,,0830.9,4.99,0.00,29.9,27.4,00.0,38.6,31.6,30.8,0000.7,0018.39,0009.55,0008.18
2022-07-12 14:42:00,,0830.9,5.01,0.00,29.8,27.4,00.0,38.5,31.4,31.0,0000.6,0019.31,0009.52,0008.15
2022-07-12 14:43:00,,0830.9,5.00,0.00,29.7,27.5,00.0,38.5,31.4,31.2,0000.7,0020.02,0009.49,0008.13
2022-07-12 14:44:00,,0830.9,5.00,0.00,29.7,27.6,00.0,38.5,31.4,31.3,0001.0,0019.97,0009.48,0008.10
2022-07-12 14:45:00,,0830.9,5.00,0.00,29.7,27.8,00.0,38.5,31.5,31.2,0000.8,0019.92,0009.49,0008.08
2022-07-12 14:46:00,,0830.9,4.99,0.00,29.7,27.9,00.0,38.5,31.5,31.3,0000.6,0020.09,0009.52,0008.07
2022-07-12 14:47:00,,0830.9,5.00,0.00,29.7,28.1,00.0,38.5,31.5,31.4,0000.0,0020.19,0009.52,0008.07
2022-07-12 14:48:00,,0830.9,4.99,0.00,29.7,28.2,00.0,38.5,31.5,31.4,0000.0,0020.59,0009.50,0008.06
2022-07-12 14:49:00,,0830.8,5.01,0.00,29.7,28.3,00.0,38.5,31.5,31.5,0000.0,0021.96,0009.44,0008.04
2022-07-12 14:50:00,,0830.8,4.99,0.00,29.7,28.4,00.0,38.5,31.6,31.7,0000.0,0021.42,0009.38,0008.01
2022-07-12 14:51:00,,0830.8,5.00,0.00,29.7,28.4,00.0,38.5,31.6,31.7,0000.0,0020.93,0009.33,0007.99
2022-07-12 14:52:00,,0830.8,5.00,0.00,29.7,28.5,00.0,38.5,31.6,31.6,0000.0,0020.10,0009.29,0007.96
2022-07-12 14:53:00,,0830.8,5.01,0.00,29.8,28.6,00.0,38.6,31.7,31.4,0000.0,0019.18,0009.27,0007.96
2022-07-12 14:54:00,,0830.8,4.99,0.00,29.8,28.7,00.0,38.6,31.7,31.5,0000.0,0018.86,0009.25,0007.94
2022-07-12 14:55:00,,0830.9,4.99,0.00,29.8,28.7,00.0,38.6,31.7,31.7,0000.4,0019.04,0009.24,0007.94
2022-07-12 14:56:00,,0830.8,5.00,0.00,29.8,28.8,00.0,38.6,31.8,31.7,0000.8,0019.40,0009.18,0007.92
2022-07-12 14:57:00,,0830.8,5.00,0.00,29.9,28.8,00.0,38.6,31.8,32.4,0002.0,0019.51,0009.13,0007.88
2022-07-12 14:58:00,,0830.8,5.00,0.00,29.9,28.7,00.0,38.6,31.8,32.3,0001.7,0019.88,0009.07,0007.80
2022-07-12 14:59:00,,0830.8,5.01,0.00,29.9,28.0,00.0,38.5,31.7,32.4,0001.5,0020.09,0009.03,0007.75
